AirNav   Jet Aviation Boston
 
 1070 users online  

N30 Cherry Ridge Airport
Honesdale, Pennsylvania, USA

GOING TO HONESDALE?


FAA INFORMATION EFFECTIVE 19 JULY 2018

Location

FAA Identifier: N30
Lat/Long: 41-30-56.1300N / 075-15-05.6150W
41-30.935500N / 075-15.093583W
41.5155917 / -75.2515597
(estimated)
Elevation: 1357 ft. / 414 m (estimated)
Variation: 13W (2005)
From city: 3 miles S of HONESDALE, PA
Time zone: UTC -4 (UTC -5 during Standard Time)
Zip code: 18431

Airport Operations

Airport use: Open to the public
Activation date: 03/1965
Control tower: no
ARTCC: NEW YORK CENTER
FSS: WILLIAMSPORT FLIGHT SERVICE STATION
NOTAMs facility: IPT (NOTAM-D service available)
Attendance: 0900-1700
Wind indicator: lighted
Segmented circle: no
Lights: SS-SR
Beacon: white-green (lighted land airport)
Operates sunset to sunrise.

Airport Communications

CTAF/UNICOM: 122.8
WILKES-BARRE APPROACH: 120.95
WILKES-BARRE DEPARTURE: 120.95

Nearby radio navigation aids

VOR radial/distance  VOR name  Freq  Var
LVZr064/24.5WILKES-BARRE VORTAC111.6010W
HUOr293/30.3HUGUENOT VOR/DME116.1011W
HNKr186/33.0HANCOCK VOR/DME116.8011W
STWr342/35.6STILLWATER VOR/DME109.6011W

Airport Services

Fuel available: 100LL
Parking: hangars and tiedowns
Airframe service: MAJOR
Powerplant service: MAJOR
Bottled oxygen: NONE
Bulk oxygen: NONE

Runway Information

Runway 18/36

Dimensions: 2986 x 50 ft. / 910 x 15 m
Surface: asphalt, in fair condition
Weight bearing capacity: 
Single wheel: 10.0
Runway edge lights: non-standard
RUNWAY 18  RUNWAY 36
Latitude: 41-31.175000N41-30.696000N
Longitude: 075-15.167500W075-15.019667W
Elevation: 1346.0 ft.1329.0 ft.
Gradient: 0.5%0.6% UP
Traffic pattern: leftleft
Runway heading: 180 magnetic, 167 true000 magnetic, 347 true
Displaced threshold: 519 ft.589 ft.
Markings: basic, in good conditionbasic, in good condition
Touchdown point: yes, no lightsyes, no lights
Obstructions: 68 ft. tree, 1060 ft. from runway, 149 ft. left of centerline, 12:1 slope to clear
APCH RATIO 23:1 TO DSPLCD THLD.
55 ft. trees, 524 ft. from runway, 150 ft. left of centerline, 6:1 slope to clear
APCH RATIO 20:1 TO DSPLCD THLD.

Airport Ownership and Management from official FAA records

Ownership: Privately-owned
Owner: EARLYNN AVIATION
30 BOMBER LANE
HONESDALE, PA 18431
Phone 570-253-5833
Manager: VINCENT VAN LAAK
30 BOMBER LANE
HONESDALE, PA 18431
Phone 570-253-5833

Airport Operational Statistics

Aircraft based on the field: 61
Single engine airplanes: 54
Multi engine airplanes: 3
Helicopters: 2
Ultralights: 2
    
Aircraft operations: avg 63/day *
65% local general aviation
35% transient general aviation
<1% military
* for 12-month period ending 17 November 2017

Additional Remarks

A30A-36 CLSD NIGHT OPS.
FOR CD CTC AVP APCH AT 570-655-2084.

Instrument Procedures

NOTE: All procedures below are presented as PDF files. If you need a reader for these files, you should download the free Adobe Reader.

NOT FOR NAVIGATION. Please procure official charts for flight.
FAA instrument procedures published for use from 19 July 2018 at 0901Z to 16 August 2018 at 0900Z.

 
IAPs - Instrument Approach Procedures
RNAV (GPS)-B   download (133KB)
VOR/DME-A   download (171KB)
NOTE: Special Take-Off Minimums/Departure Procedures apply   download (149KB)

Other nearby airports with instrument procedures:

70N - Spring Hill Airport (13 nm SW)
9N3 - Seamans Field Airport (23 nm W)
KMSV - Sullivan County International Airport (23 nm NE)
KMPO - Pocono Mountains Municipal Airport (23 nm S)
KAVP - Wilkes-Barre/Scranton International Airport (24 nm SW)
 
Loc | Ops | Rwys | IFR | FBO | Links
Com | Nav | Svcs | Stats | Notes


 
Area around N30 (Cherry Ridge Airport)
 
Road maps at: MapQuest Bing Google
 
Aerial photo
WARNING: Photo may not be current or correct
Aerial photo of N30 (Cherry Ridge Airport)
Photo by Mark Bischoff
Photo taken 30-Aug-2014
looking south.

Do you have a better or more recent aerial photo of Cherry Ridge Airport that you would like to share? If so, please send us your photo.

 
Sectional chart

 
Airport distance calculator
Flying to Cherry Ridge Airport? Find the distance to fly.

From to N30

Sunrise and sunset
Times for 22-Jul-2018
 Local
(UTC-4)
 Zulu
(UTC)
Morning civil twilight05:1509:15
Sunrise05:4709:47
Sunset20:2800:28
Evening civil twilight21:0001:00

Current date and time
Zulu (UTC)  22-Jul-2018 15:03:17
Local (UTC-4)  22-Jul-2018 11:03:17
 
METAR
KMPO 
24nm S 
221453Z AUTO 14008KT 10SM BKN005 OVC011 18/18 A2993 RMK AO2 RAB37E47 CIG 002V006 SLP132 P0001 60002 T01830183 53019
KMSV 
24nm NE 
221456Z AUTO 14012G18KT 10SM OVC006 A2994 RMK AO2 RAB03E12UPB12E20 CIG 005V012 SLPNO P0000 60002 53016 FZRANO $
KAVP 
24nm SW 
221454Z 16007KT 060V200 10SM BKN023 24/18 A2986 RMK AO2 SLP104 60000 T02440183 51034
KFWN 
34nm SE 
221453Z AUTO 17008KT 140V210 10SM SCT017 BKN028 26/22 A2990 RMK AO2 SLP121 60000 T02560217 53016
K12N 
38nm SE 
221454Z AUTO VRB06KT 24/22 A2991 RMK AO1 SLP121 T02440217 51026
KMGJ 
44nm E 
SuperAWOS
221454Z AUTO 17013G20KT 10SM BKN016 OVC047 24/21 A2990 RMK AO2 SLP124 60001 T02440211 53021 $
KHZL 
46nm SW 
221455Z AUTO 15007KT 100V170 10SM OVC007 20/17 A2992 RMK AO2
TAF
KAVP 
24nm SW 
221123Z 2212/2312 13008G18KT P6SM OVC030 FM221500 14012G25KT P6SM OVC035 FM221700 16010G20KT P6SM BKN040 TEMPO 2221/2301 5SM -SHRA BKN035 FM230300 13007KT P6SM BKN025 OVC050 FM230800 14005KT P6SM OVC018
NOTAMs
Click for the latest NOTAMs
NOTAMs are issued by the DoD/FAA and will open in a separate window not controlled by AirNav.

 

 
 

FBO, Fuel Providers, and Aircraft Ground Support

  
 Business Name 
 
 Contact 
 
 Services / Description 
 
Fuel Prices
 
Comments
  
Earlynn Aviation Inc 570-253-5833
no information available

If you are affiliated with Earlynn Aviation Inc and would like to show here your services, contact info, web link, logo, and more, click here
100LL
SS $4.95 
 Updated 12-Jul-2018
 
   1 read write
SS=Self service
Update Fuel Prices
 

Where to Eat: Catering, Restaurants, Food shops

  
 Business Name 
 
 Contact 
 
 Services / Description 
 
Distance
 
Comments
  
Cherry Ridge Restaurant 570-253-5517
[web site]
[email]
Restaurant

More info about Cherry Ridge Restaurant
on airport  
   6 read write
 

Would you like to see your business listed on this page?

 If your business provides an interesting product or service to pilots, flight crews, aircraft, or users of the Cherry Ridge Airport, you should consider listing it here.  To start the listing process, click on the button below
 
Add a business
 

Other Pages about Cherry Ridge Airport

Update a link
 
Copyright © AirNav, LLC. All rights reserved. Privacy Policy  Contact